Location: Newark
(40.3500°N, 15.2333°E)
Time: 07:06:07
(UTC+00:00)

Transit 4A - All Passes

Search period start: 18 January 2020 00:00
Search period end: 28 January 2020 00:00
Orbit: 871 x 973 km, 66.8° (Epoch: 17 January)

Date Brightness Start Highest point End Pass type
(mag) Time Alt. Az. Time Alt. Az. Time Alt. Az.
18 Jan - 06:45:48 10° SSW 06:51:50 71° ESE 06:57:46 10° NNE daylight
18 Jan - 08:34:11 10° W 08:38:44 22° NW 08:43:14 10° N daylight
18 Jan - 14:04:34 10° N 14:07:30 14° NE 14:10:25 10° ENE daylight
18 Jan - 15:49:07 10° NNW 15:54:56 69° ENE 16:00:46 10° SE daylight
18 Jan - 17:36:59 10° WNW 17:40:38 17° WSW 17:44:18 10° SW visible
19 Jan - 05:12:08 10° SE 05:15:31 15° ESE 05:18:52 10° ENE visible
19 Jan - 06:55:04 10° SSW 07:01:10 79° WNW 07:07:07 10° NNE daylight
19 Jan - 08:44:53 10° WNW 08:48:27 16° NW 08:51:59 10° N daylight
19 Jan - 14:13:10 10° N 14:17:15 19° NE 14:21:18 10° E daylight
19 Jan - 15:58:26 10° NNW 16:04:16 81° WSW 16:10:08 10° SSE daylight
19 Jan - 17:48:52 10° W 17:49:39 10° W 17:50:24 10° WSW visible
20 Jan - 05:19:52 10° SSE 05:24:35 24° ESE 05:29:14 10° NE visible
20 Jan - 07:04:37 10° SW 07:10:33 54° NW 07:16:21 10° NNE daylight
20 Jan - 08:56:16 10° NW 08:58:15 12° NW 09:00:14 10° NNW daylight
20 Jan - 14:22:03 10° N 14:26:53 26° NE 14:31:44 10° ESE daylight
20 Jan - 16:07:52 10° NW 16:13:32 53° WSW 16:19:12 10° S daylight
21 Jan - 05:28:14 10° S 05:33:43 36° ESE 05:39:06 10° NE visible
21 Jan - 07:14:26 10° WSW 07:20:00 37° NW 07:25:29 10° NNE daylight
21 Jan - 14:31:04 10° NNW 14:36:27 37° NE 14:41:49 10° ESE daylight
21 Jan - 16:17:30 10° NW 16:22:43 35° WSW 16:27:57 10° S daylight
22 Jan - 05:37:01 10° S 05:42:55 55° ESE 05:48:42 10° NE visible
22 Jan - 07:24:33 10° WSW 07:29:34 27° NW 07:34:31 10° N daylight
22 Jan - 12:56:25 10° NNE 12:58:11 11° NE 12:59:57 10° NE daylight
22 Jan - 14:40:12 10° NNW 14:45:55 54° ENE 14:51:38 10° SE daylight
22 Jan - 16:27:23 10° WNW 16:31:50 23° WSW 16:36:17 10° SSW visible
23 Jan - 04:05:09 10° ESE 04:06:45 11° ESE 04:08:21 10° E visible
23 Jan - 05:46:06 10° SSW 05:52:11 82° ESE 05:58:07 10° NNE visible
23 Jan - 07:35:00 10° W 07:39:13 19° NW 07:43:24 10° N daylight
23 Jan - 13:04:36 10° N 13:08:00 16° NE 13:11:24 10° ENE daylight
23 Jan - 14:49:26 10° NNW 14:55:17 79° ENE 15:01:10 10° SSE daylight
23 Jan - 16:37:51 10° WNW 16:40:52 15° WSW 16:43:55 10° SW visible
24 Jan - 04:11:50 10° SE 04:15:46 18° ESE 04:19:40 10° ENE visible
24 Jan - 05:55:30 10° SW 06:01:31 69° WNW 06:07:26 10° NNE daylight
24 Jan - 07:45:53 10° WNW 07:48:58 14° NW 07:52:01 10° N daylight
24 Jan - 13:13:20 10° N 13:17:43 21° NE 13:22:05 10° E daylight
24 Jan - 14:58:48 10° NNW 15:04:36 70° WSW 15:10:26 10° SSE daylight
25 Jan - 04:19:50 10° SSE 04:24:51 28° ESE 04:29:48 10° NE visible
25 Jan - 06:05:08 10° SW 06:10:56 47° NW 06:16:38 10° NNE daylight
25 Jan - 07:58:02 10° NW 07:58:49 10° NNW 07:59:35 10° NNW daylight
25 Jan - 13:22:16 10° N 13:27:20 30° NE 13:32:24 10° ESE daylight
25 Jan - 15:08:18 10° NW 15:13:50 46° WSW 15:19:23 10° S daylight
26 Jan - 04:28:22 10° S 04:34:00 42° ESE 04:39:34 10° NE visible
26 Jan - 06:15:04 10° WSW 06:20:26 33° NW 06:25:44 10° NNE daylight
26 Jan - 13:31:19 10° NNW 13:36:51 42° NE 13:42:23 10° SE daylight
26 Jan - 15:18:00 10° NW 15:22:59 30° WSW 15:28:01 10° SSW daylight
27 Jan - 04:37:16 10° SSW 04:43:15 64° ESE 04:49:05 10° NE visible
27 Jan - 06:25:17 10° W 06:30:02 24° NW 06:34:42 10° N daylight
27 Jan - 11:56:13 10° N 11:58:43 13° NE 12:01:13 10° ENE daylight
27 Jan - 13:40:30 10° NNW 13:46:18 62° ENE 13:52:06 10° SE daylight
27 Jan - 15:28:02 10° WNW 15:32:05 20° WSW 15:36:09 10° SSW daylight
